Terminal Aerodrome Forecast
Issued by NWS Duluth, MN

Home | Current Version | Previous Version | Text Only | Print | Product List | Glossary On
Versions: 1 2 3 4 5 6 7 8 9 10 11 12 13 14 15 16 17 18 19 20 21 22 23 24
000
FTUS43 KDLH 210300 AAA
TAFDLH
TAF AMD
KDLH 210326Z 2103/2124 05005KT P6SM OVC025
     FM210900 09006KT P6SM OVC015
     FM211600 10011KT P6SM SCT015=

USA.gov is the U.S. government's official web portal to all federal, state and local government web resources and services.